Weather History for Claremore, OK

Change the Weather History Date:

Thursday, February 21, 2013

  Actual Average (KTUL) Record (KTUL)
Temperature  
Mean Temperature 32 °F 44 °F  
Max Temperature 35 °F 55 °F 82 °F (1996)
Min Temperature 30 °F 33 °F 7 °F (1939)
Degree Days  
Heating Degree Days 32 21  
Month to date heating degree days 499  
Since 1 July heating degree days 2772  
Moisture  
Dew Point 32 °F    
Average Humidity 97    
Maximum Humidity 100    
Minimum Humidity 86    
Precipitation  
Precipitation 0.54 in 0.08 in 1.43 in (1913)
Month to date precipitation 1.31  
Year to date precipitation 2.97  
Sea Level Pressure  
Sea Level Pressure 29.85 in    
Wind  
Wind Speed 11 mph (ESE)    
Max Wind Speed 18 mph    
Max Gust Speed 25 mph    
Visibility 6 miles    
Events Rain , Snow , Thunderstorm    
T = Trace of Precipitation, MM = Missing Value Source: NWS Daily Summary

Daily Weather History Graph

Daily Weather History Graph

Search for Another Location

Airport:

Trip Planner

Search our weather history database for the weather conditions in past years. The results will help you decide how hot, cold, wet, or windy it might be!

Date:

Astronomy

Feb. 21, 2013 Rise Set
Actual Time 7:02 AM CST 6:09 PM CST
Civil Twilight 6:36 AM CST 6:35 PM CST
Nautical Twilight 6:06 AM CST 7:05 PM CST
Astronomical Twilight 5:36 AM CST 7:35 PM CST
Moon 2:29 PM CST (2/21) 4:02 AM CST (2/21)
Length of Visible Light 11h 59m
Length of Day
11h 07m
Waxing Gibbous, 84% of the Moon is Illuminated
Feb 21
Waxing Gibbous
Feb 25
Full
Mar 4
Last Quarter
Mar 11
New
Mar 19
First Quarter

Hourly Weather History & Observations

Time (CST) Temp. Windchill Dew Point Humidity Pressure Visibility Wind Dir Wind Speed Gust Speed Precip Events Conditions
12:15 AM 32.0 °F 24.8 °F 32.0 °F 100% 30.05 in 4.0 mi East 8.1 mph - N/A Rain Light Rain
12:35 AM 32.0 °F 24.2 °F 32.0 °F 100% 30.05 in 4.0 mi East 9.2 mph - 0.02 in Rain Light Rain
12:55 AM 32.0 °F 23.6 °F 32.0 °F 100% 30.03 in 7.0 mi East 10.4 mph - 0.02 in Rain Light Rain
1:15 AM 32.0 °F 23.6 °F 32.0 °F 100% 30.02 in 7.0 mi East 10.4 mph - N/A   Drizzle
1:35 AM 32.0 °F 23.6 °F 32.0 °F 100% 30.01 in 2.5 mi ENE 10.4 mph - 0.03 in Rain Rain
1:55 AM 32.0 °F 23.6 °F 32.0 °F 100% 29.98 in 5.0 mi ENE 10.4 mph - 0.04 in Rain Rain
2:15 AM 32.0 °F 23.0 °F 32.0 °F 100% 29.96 in 7.0 mi ENE 11.5 mph - N/A   Overcast
2:35 AM 32.0 °F 23.0 °F 32.0 °F 100% 29.95 in 10.0 mi ENE 11.5 mph - N/A   Mostly Cloudy
2:55 AM 32.0 °F 21.6 °F 32.0 °F 100% 29.92 in 7.0 mi East 15.0 mph 21.9 mph N/A Rain Light Rain
3:15 AM 32.0 °F 21.6 °F 32.0 °F 100% 29.91 in 4.0 mi East 15.0 mph 21.9 mph 0.01 in Rain Light Rain
3:35 AM 32.0 °F 22.1 °F 32.0 °F 100% 29.88 in 10.0 mi East 13.8 mph - 0.01 in   Overcast
3:55 AM 32.0 °F 20.5 °F 32.0 °F 100% 29.84 in 10.0 mi East 18.4 mph 24.2 mph 0.01 in   Overcast
4:15 AM 32.0 °F 21.2 °F 32.0 °F 100% 29.84 in 10.0 mi East 16.1 mph 21.9 mph N/A   Overcast
4:35 AM 32.0 °F 22.5 °F 32.0 °F 100% 29.83 in 4.0 mi ENE 12.7 mph - 0.01 in Rain Light Rain
4:55 AM 32.0 °F 23.6 °F 32.0 °F 100% 29.84 in 3.0 mi ENE 10.4 mph - 0.05 in Thunderstorm Thunderstorm
5:15 AM 32.0 °F 22.5 °F 32.0 °F 100% 29.81 in 2.5 mi East 12.7 mph - 0.04 in Thunderstorm Overcast
5:35 AM 32.0 °F 23.0 °F 32.0 °F 100% 29.81 in 7.0 mi East 11.5 mph - 0.04 in   Overcast
5:55 AM 32.0 °F 23.6 °F 32.0 °F 100% 29.80 in 10.0 mi ENE 10.4 mph - 0.04 in Thunderstorm Overcast
6:15 AM 32.0 °F 23.6 °F 32.0 °F 100% 29.80 in 10.0 mi ENE 10.4 mph - 0.01 in   Overcast
6:35 AM 32.0 °F 25.6 °F 32.0 °F 100% 29.79 in 10.0 mi ENE 6.9 mph - 0.01 in   Overcast
6:55 AM 32.0 °F 24.8 °F 32.0 °F 100% 29.84 in 5.0 mi WNW 8.1 mph - 0.03 in Thunderstorm Mostly Cloudy
7:15 AM 32.0 °F 25.6 °F 32.0 °F 100% 29.85 in 0.5 mi NNW 6.9 mph - 0.06 in Snow , Thunderstorm Light Thunderstorms and Snow
7:35 AM 32.0 °F 25.6 °F 32.0 °F 100% 29.85 in 2.0 mi North 6.9 mph - 0.09 in Thunderstorm Overcast
7:55 AM 32.0 °F 24.2 °F 32.0 °F 100% 29.84 in 1.8 mi North 9.2 mph - 0.12 in Thunderstorm Thunderstorm
8:15 AM 32.0 °F 24.8 °F 32.0 °F 100% 29.85 in 4.0 mi NNE 8.1 mph - N/A Thunderstorm Overcast
8:35 AM 32.0 °F 24.8 °F 32.0 °F 100% 29.86 in 4.0 mi NNE 8.1 mph - 0.01 in   Overcast
8:55 AM 32.0 °F 24.2 °F 32.0 °F 100% 29.85 in 4.0 mi NNE 9.2 mph - 0.03 in Thunderstorm Overcast
9:15 AM 32.0 °F 21.6 °F 32.0 °F 100% 29.81 in 2.5 mi ENE 15.0 mph - 0.03 in Thunderstorm Overcast
9:35 AM 32.0 °F 24.2 °F 32.0 °F 100% 29.87 in 1.2 mi ENE 9.2 mph - 0.10 in Snow , Thunderstorm Light Thunderstorms and Snow
9:55 AM 32.0 °F 24.8 °F 32.0 °F 100% 29.87 in 2.5 mi ENE 8.1 mph - 0.18 in   Overcast
10:15 AM 32.0 °F 24.2 °F 32.0 °F 100% 29.83 in 2.5 mi NE 9.2 mph - 0.01 in   Overcast
10:35 AM 32.0 °F 23.0 °F 32.0 °F 100% 29.82 in 4.0 mi ENE 11.5 mph - 0.02 in   Overcast
10:55 AM 32.0 °F 22.1 °F 32.0 °F 100% 29.81 in 5.0 mi East 13.8 mph 17.3 mph 0.02 in   Overcast
11:15 AM 33.8 °F 24.8 °F 32.0 °F 93% 29.79 in 4.0 mi East 12.7 mph - N/A   Overcast
11:35 AM 33.8 °F 25.3 °F 32.0 °F 93% 29.78 in 5.0 mi East 11.5 mph - N/A   Overcast
12:15 PM 33.8 °F 24.3 °F 33.8 °F 100% 29.76 in 10.0 mi ESE 13.8 mph - N/A   Overcast
12:35 PM 35.6 °F 25.9 °F 33.8 °F 93% 29.75 in 10.0 mi SE 16.1 mph 19.6 mph N/A   Overcast
12:55 PM 35.6 °F 26.2 °F 33.8 °F 93% 29.74 in 10.0 mi SE 15.0 mph 20.7 mph N/A   Overcast
1:15 PM 35.6 °F 26.6 °F 33.8 °F 93% 29.73 in 10.0 mi SE 13.8 mph 17.3 mph N/A   Overcast
1:35 PM 35.6 °F 27.5 °F 33.8 °F 93% 29.72 in 10.0 mi SSE 11.5 mph - N/A   Overcast
1:55 PM 35.6 °F 27.5 °F 33.8 °F 93% 29.71 in 10.0 mi SE 11.5 mph - N/A   Overcast
2:15 PM 35.6 °F 27.5 °F 32.0 °F 87% 29.72 in 10.0 mi SSE 11.5 mph - N/A   Overcast
2:35 PM 35.6 °F 26.6 °F 32.0 °F 87% 29.72 in 5.0 mi SSE 13.8 mph - N/A   Overcast
2:55 PM 35.6 °F 28.6 °F 32.0 °F 87% 29.73 in 2.0 mi South 9.2 mph - N/A Rain Light Rain
3:15 PM 33.8 °F 27.7 °F 33.8 °F 100% 29.74 in 2.0 mi South 6.9 mph - N/A   Drizzle
3:35 PM 33.8 °F 27.7 °F 33.8 °F 100% 29.74 in 2.0 mi SSE 6.9 mph - N/A   Drizzle
4:15 PM 33.8 °F 28.6 °F 33.8 °F 100% 29.75 in 1.5 mi SSW 5.8 mph - N/A   Heavy Drizzle
5:15 PM 33.8 °F 26.4 °F 33.8 °F 100% 29.78 in 3.0 mi SSW 9.2 mph - N/A   Overcast
5:35 PM 33.8 °F 27.0 °F 33.8 °F 100% 29.79 in 2.5 mi SSW 8.1 mph - N/A   Overcast
5:55 PM 33.8 °F 25.8 °F 33.8 °F 100% 29.80 in 5.0 mi SSW 10.4 mph - N/A   Overcast
6:15 PM 33.8 °F 27.0 °F 33.8 °F 100% 29.80 in 2.5 mi SSW 8.1 mph - N/A   Overcast
6:35 PM 33.8 °F 26.4 °F 32.0 °F 93% 29.81 in 4.0 mi SSW 9.2 mph - N/A   Overcast
6:55 PM 33.8 °F 27.0 °F 32.0 °F 93% 29.81 in 4.0 mi SW 8.1 mph - N/A   Overcast
7:15 PM 33.8 °F 26.4 °F 32.0 °F 93% 29.82 in 3.0 mi SW 9.2 mph - N/A   Overcast
7:35 PM 33.8 °F 27.0 °F 32.0 °F 93% 29.83 in 1.8 mi SW 8.1 mph - N/A   Overcast
7:55 PM 33.8 °F 27.0 °F 33.8 °F 100% 29.83 in 1.8 mi WSW 8.1 mph - N/A   Overcast
8:15 PM 33.8 °F 27.7 °F 33.8 °F 100% 29.84 in 1.5 mi WSW 6.9 mph - N/A   Overcast
8:35 PM 33.8 °F 26.4 °F 33.8 °F 100% 29.85 in 2.5 mi WSW 9.2 mph - N/A   Overcast
8:55 PM 33.8 °F 27.0 °F 33.8 °F 100% 29.86 in 5.0 mi WSW 8.1 mph - N/A   Overcast
9:15 PM 33.8 °F 27.7 °F 33.8 °F 100% 29.87 in 5.0 mi WSW 6.9 mph - N/A   Overcast
9:35 PM 33.8 °F 26.4 °F 33.8 °F 100% 29.88 in 7.0 mi WSW 9.2 mph - N/A   Overcast
9:55 PM 33.8 °F 24.3 °F 33.8 °F 100% 29.89 in 10.0 mi West 13.8 mph - N/A   Overcast
10:15 PM 33.8 °F 23.9 °F 32.0 °F 93% 29.91 in 10.0 mi West 15.0 mph 25.3 mph N/A   Overcast
10:35 PM 32.0 °F 21.2 °F 30.2 °F 93% 29.93 in 10.0 mi West 16.1 mph 21.9 mph N/A   Overcast
10:55 PM 32.0 °F 22.1 °F 28.4 °F 87% 29.93 in 10.0 mi West 13.8 mph 23.0 mph N/A   Overcast
11:15 PM 32.0 °F 21.2 °F 28.4 °F 87% 29.95 in 10.0 mi West 16.1 mph 23.0 mph N/A   Overcast
11:35 PM 30.2 °F 19.3 °F 26.6 °F 86% 29.96 in 10.0 mi West 15.0 mph 21.9 mph N/A   Overcast
11:55 PM 30.2 °F 19.3 °F 26.6 °F 86% 29.97 in 10.0 mi West 15.0 mph - N/A   Overcast